User: anonymous   Login
Location: Broad Creek
(39.7000°N, 76.2570°W)
Time: 01:19:36
(UTC-04:00)
Language:

ETS-7 - Orbit

View from above orbital plane
View from above orbital plane
View from above satellite
View from above satellite

Ground track
Ground track

The orbit data is extracted from the following two-line orbital elements,

1 25064U 97074B   15117.82002067  .00056341  00000-0  45418-3 0  9998
2 25064 034.9543 344.8801 0002448 274.3048 140.7209 15.69727994970234
Epoch (UTC): 27 April 2015 19:40:49
Eccentricity: 0.0002448
inclination: 34.9543°
perigee height: 358 km
apogee height: 361 km
right ascension of ascending node: 344.8801°
argument of perigee: 274.3048°
revolutions per day: 15.69727994
mean anomaly at epoch: 140.7209°
orbit number at epoch: 97023

The dashed part of the orbit path shows where the satellite is in the earth's shadow,  

DLR